User: anonymous   Login
Location: �clusier
(49.9361°N, 2.7869°E)
Time: 20:04:39
(UTC+00:00)
Language:

Cosmos 2061 Rocket - Orbit

View from above orbital plane
View from above orbital plane
View from above satellite
View from above satellite

Ground track
Ground track

The orbit data is extracted from the following two-line orbital elements,

1 20528U 90023B   21266.18595010  .00000056  00000-0  43797-4 0  9992
2 20528  82.9401 351.5590 0032114  15.4178  10.2257 13.72886862578949
Epoch (UTC): 23 September 2021 04:27:46
Eccentricity: 0.0032114
inclination: 82.9401°
perigee height: 965 km
apogee height: 1013 km
right ascension of ascending node: 351.5590°
argument of perigee: 15.4178°
revolutions per day: 13.72886862
mean anomaly at epoch: 10.2257°
orbit number at epoch: 57894

The dashed part of the orbit path shows where the satellite is in the earth's shadow,  

DLR